Regional Weather Roundup
Issued by NWS

Home | Current Version | Previous Version | Text Only | Print | Product List | Glossary Off
Versions: 1 2 3 4 5 6 7 8 9 10 11 12 13 14 15 16 17 18 19 20 21 22 23 24 25 26 27 28

000
ASUS45 KCYS 231310
RWRWY

WYOMING REGIONAL WEATHER ROUNDUP
NATIONAL WEATHER SERVICE CHEYENNE WY
700 AM MDT FRI JUN 23 2017

NOTE:  "FAIR" INDICATES FEW OR NO CLOUDS BELOW 12,000 FEET
WITH NO SIGNIFICANT WEATHER AND/OR OBSTRUCTIONS TO VISIBILITY.

WYZ001-231400-
YELLOWSTONE NATIONAL PARK

CITY           SKY/WX    TMP DP  RH WIND       PRES   REMARKS
LK YELLOWSTONE   N/A     30  26  85 CALM      30.37R
W YELLOWSTONE  NOT AVBL

$$
WYZ002>013-054>058-071-098>099-231400-
NORTHERN WYOMING

CITY           SKY/WX    TMP DP  RH WIND       PRES   REMARKS
JACKSON        SUNNY     39  34  81 VRB5      30.30R
CODY           FAIR      48  36  63 SW6       30.32F
GREYBULL       FAIR      51  32  48 NE6       30.28F
WORLAND        FAIR      50  35  56 CALM      30.29S
SHERIDAN       FAIR      47  38  71 CALM      30.29R
BUFFALO        FAIR      46  37  71 W3        30.30R
GILLETTE       FAIR      47  37  68 NW6       30.27R
NEWCASTLE      FAIR      48  36  61 NW20      30.24F

$$
WYZ014>020-022>026-101>103-231400-
CENTRAL WYOMING

CITY           SKY/WX    TMP DP  RH WIND       PRES   REMARKS
BIG PINEY      FAIR      45  31  58 SW10      30.33R
PINEDALE       FAIR      45  30  57 N3        30.34R
DUBOIS         FAIR      41  30  65 CALM      30.35S
LANDER         FAIR      46  34  62 CALM      30.31S
RIVERTON       FAIR      50  34  54 W6        30.32S
CASPER         FAIR      49  36  61 N3        30.30R
DOUGLAS        FAIR      47  39  74 W5        30.30R

$$
WYZ021-027>030-104>119-231400-
SOUTHERN WYOMING

CITY           SKY/WX    TMP DP  RH WIND       PRES   REMARKS
EVANSTON       FAIR      48  34  58 E12       30.29R
KEMMERER         N/A     45  28  53 N8        30.33S
FORT BRIDGER   FAIR      47  32  55 NE7       30.33R
ROCK SPRINGS   FAIR      46  28  49 NE9       30.31R
DIXON          FAIR      50  34  54 E6        30.28R
RAWLINS        FAIR      47  31  53 NE12      30.30S
SARATOGA       FAIR      46  34  61 SE7       30.30S
LARAMIE        CLOUDY    44  34  67 SE7       30.32F
CHEYENNE       CLOUDY    45  37  73 N8        30.31S
TORRINGTON     CLOUDY    52  41  66 W7        30.25S
PINE BLUFFS    CLOUDY    46  41  81 N9        30.29F

$$




USA.gov is the U.S. government's official web portal to all federal, state and local government web resources and services.